Lubbock, TX

2:14 PM CDT on March 29, 2017 (GMT -0500)
Lubbock International

Weather History for KLBB - April, 2013

Change the Weather History Date:

Saturday, April 13, 2013

  Actual Average Record
Temperature  
Mean Temperature 60 °F 60 °F  
Max Temperature 77 °F 75 °F 91 °F (1932)
Min Temperature 43 °F 45 °F 26 °F (1957)
Degree Days  
Heating Degree Days 5 7  
Month to date heating degree days 127 105  
Since 1 July heating degree days 3013 3259  
Cooling Degree Days 0 1  
Month to date cooling degree days 13 13  
Year to date cooling degree days 15 20  
Growing Degree Days 10 (Base 50)    
Moisture  
Dew Point 41 °F    
Average Humidity 50    
Maximum Humidity 76    
Minimum Humidity 24    
Precipitation  
Precipitation 0.00 in 0.05 in 0.42 in (2015)
Month to date precipitation 0.04 0.54  
Year to date precipitation 2.27 3.04  
Snow  
Snow 0.00 in 0.00 in T in (1997)
Month to date snowfall 0.4 0.1  
Since 1 July snowfall 4.1 8.1  
Snow Depth 0.00 in    
Sea Level Pressure  
Sea Level Pressure 29.74 in    
Wind  
Wind Speed 15 mph (SSE)    
Max Wind Speed 31 mph    
Max Gust Speed 38 mph    
Visibility 10 miles    
Events      
T = Trace of Precipitation, MM = Missing Value Source: NWS Daily Summary

Daily Weather History Graph

Daily Weather History Graph

Search for Another Location

Airport or City:

Trip Planner

Search our weather history database for the weather conditions in past years. The results will help you decide how hot, cold, wet, or windy it might be!

Date:

Astronomy

Apr. 13, 2013 Rise Set
Actual Time 7:18 AM CDT 8:17 PM CDT
Civil Twilight 6:53 AM CDT 8:42 PM CDT
Nautical Twilight 6:23 AM CDT 9:12 PM CDT
Astronomical Twilight 5:52 AM CDT 9:44 PM CDT
Moon 9:19 AM CDT (4/13) 11:34 PM CDT (4/13)
Length of Visible Light 13h 49m
Length of Day
12h 58m
Waxing Crescent, 10% of the Moon is Illuminated
Apr 13
Waxing Crescent
Apr 18
First Quarter
Apr 25
Full
May 2
Last Quarter
May 9
New

Hourly Weather History & Observations

Time (CDT) Temp. Windchill Dew Point Humidity Pressure Visibility Wind Dir Wind Speed Gust Speed Precip Events Conditions
12:53 AM 52.0 °F - 41.0 °F 66% 29.89 in 10.0 mi East 9.2 mph - N/A   Scattered Clouds
1:53 AM 51.1 °F - 41.0 °F 68% 29.79 in 10.0 mi ENE 9.2 mph - N/A   Scattered Clouds
2:53 AM 48.9 °F - 39.9 °F 71% 29.79 in 10.0 mi East 6.9 mph - N/A   Partly Cloudy
3:53 AM 46.9 °F - 39.0 °F 74% 29.80 in 10.0 mi East 5.8 mph - N/A   Partly Cloudy
4:53 AM 45.0 °F 41.8 °F 37.9 °F 76% 29.81 in 10.0 mi East 5.8 mph - N/A   Partly Cloudy
5:53 AM 44.1 °F 40.8 °F 37.9 °F 79% 29.80 in 10.0 mi ESE 5.8 mph - N/A   Partly Cloudy
6:53 AM 44.6 °F 38.8 °F 37.4 °F 76% 29.90 in 10.0 mi NE 11.5 mph - N/A   Scattered Clouds
7:53 AM 44.1 °F 38.6 °F 37.0 °F 76% 29.83 in 10.0 mi NNE 10.4 mph - N/A   Mostly Cloudy
8:53 AM 51.1 °F - 39.9 °F 66% 29.83 in 10.0 mi East 6.9 mph - N/A   Mostly Cloudy
9:53 AM 55.9 °F - 39.9 °F 55% 29.81 in 10.0 mi SSE 8.1 mph - N/A   Mostly Cloudy
10:53 AM 60.1 °F - 41.0 °F 49% 29.82 in 10.0 mi South 9.2 mph - N/A   Mostly Cloudy
11:53 AM 63.0 °F - 36.0 °F 37% 29.81 in 10.0 mi South 12.7 mph - N/A   Mostly Cloudy
12:53 PM 68.0 °F - 34.0 °F 28% 29.77 in 10.0 mi South 16.1 mph 23.0 mph N/A   Mostly Cloudy
1:53 PM 71.1 °F - 37.0 °F 29% 29.74 in 10.0 mi South 15.0 mph - N/A   Mostly Cloudy
2:53 PM 73.9 °F - 39.9 °F 29% 29.70 in 10.0 mi South 17.3 mph - N/A   Mostly Cloudy
3:53 PM 77.0 °F - 37.9 °F 24% 29.66 in 10.0 mi South 23.0 mph - N/A   Scattered Clouds
4:53 PM 75.9 °F - 39.9 °F 27% 29.63 in 10.0 mi South 24.2 mph 33.4 mph N/A   Scattered Clouds
5:53 PM 75.0 °F - 44.1 °F 33% 29.61 in 10.0 mi South 26.5 mph 34.5 mph N/A   Scattered Clouds
6:53 PM 73.4 °F - 46.4 °F 38% 29.69 in 10.0 mi South 25.3 mph 34.5 mph N/A   Scattered Clouds
7:53 PM 70.0 °F - 45.0 °F 41% 29.61 in 10.0 mi South 23.0 mph 28.8 mph N/A   Scattered Clouds
8:53 PM 68.0 °F - 45.0 °F 43% 29.61 in 10.0 mi South 18.4 mph 26.5 mph N/A   Mostly Cloudy
9:53 PM 66.0 °F - 46.0 °F 48% 29.61 in 10.0 mi South 18.4 mph 27.6 mph N/A   Scattered Clouds
10:53 PM 64.0 °F - 48.9 °F 58% 29.60 in 10.0 mi South 20.7 mph 28.8 mph N/A   Partly Cloudy
11:53 PM 62.1 °F - 50.0 °F 65% 29.58 in 10.0 mi South 25.3 mph 33.4 mph N/A   Partly Cloudy